Flag for United Kingdom Weather past 2 weeks in Londonderry, Northern Ireland, United Kingdom

Now
54 °F

Cool.


Feels Like: 54 °F
Forecast: 47 / 65 °F
Wind: 3 mph from North

Location: Castlederg

Current Time: Sep 20, 2014 at 9:11:00 PM

Latest Report: Sep 20, 2014 at 8:00 PM


Visibility: 13 mi

Pressure: 30.25 "Hg

Humidity: 90%

Dew point: 51 °F

Location of LondonderryLocation

Historic Weather in Londonderry — Graph

°F

Londonderry temperature yesterday

Maximum temperature yesterday: 65 °F (at 5:00 PM)
Minimum temperature yesterday: 54 °F (at 12:00 AM)
Average temperature yesterday: 59 °F

Past Weeks' High & Low Weather Summary

 TemperatureHumidityPressure
High72 °F (Sep 11, 5:00 PM)100% (Sep 6, 2:00 AM)30.35 "Hg (Sep 6, 2:00 AM)
Low39 °F (Sep 8, 4:00 AM)51% (Sep 9, 4:00 PM)29.86 "Hg (Sep 18, 4:00 PM)
Average55 °F87%30.12 "Hg
* Reported Sep 5 7:00 PM — Sep 20 7:00 PM, Londonderry, Weather by CustomWeather, © 2014

Note: Actual official high and low records may vary slightly from our data, if they occured in-between our weather recording intervals... More about our weather records

Advertising

Londonderry weather history for previous 24 hours

 ConditionsComfort  
Time TempWeatherWind HumidityBarometerVisibility
7:00 PM
Sep 20
57 °FCool.5 mph78%30.24 "Hg28 mi
6:00 PM60 °FCool.6 mph70%30.22 "Hg28 mi
2:00 PM61 °FCool.8 mph63%30.19 "Hg28 mi
1:00 PM60 °FCool.7 mph74%30.19 "Hg28 mi
12:00 PM58 °FCool.8 mph82%30.19 "Hg28 mi
11:00 AM58 °FCool.9 mph87%30.17 "Hg28 mi
10:00 AM56 °FCool.5 mph92%30.16 "Hg28 mi
9:00 AM55 °FCool.5 mph93%30.15 "Hg19 mi
8:00 AM53 °FCool.3 mph95%30.14 "Hg14 mi
7:00 AM55 °FCool.5 mph96%30.11 "Hg17 mi
6:00 AM55 °FRain showers. Overcast.2 mph96%30.10 "Hg17 mi
5:00 AM55 °FCool.2 mph93%30.09 "Hg18 mi
4:00 AM55 °FCool.3 mph93%30.09 "Hg19 mi
3:00 AM56 °FCool.5 mph94%30.09 "Hg19 mi
2:00 AM56 °FCool.8 mph99%30.08 "Hg7 mi
1:00 AM56 °FDrizzle. Overcast.6 mph100%30.07 "Hg2 mi
12:00 AM57 °FFog.5 mph100%30.06 "Hg3 mi
11:00 PM
Sep 19
58 °FFog.6 mph100%30.05 "Hg2 mi
10:00 PM58 °FCool.6 mph100%30.03 "Hg4 mi
9:00 PM59 °FFog.5 mph100%30.02 "Hg2 mi
Weather by CustomWeather, © 2014

See weather overviewHow to use our weather pages